Home > Weather > Panama > Past weeks

Flag for Panama Past Weather in Panama, Panama — Yesterday and Last 2 Weeks

Now
90 °F

Passing clouds.


Feels Like: 100 °F
Forecast: 80 / 87 °F
Wind: 3 mph from Southwest

Location: Marcos A. Gelabert

Current Time: May 26, 2016 at 1:37:36 PM

Latest Report: May 26, 2016 at 1:00 PM


Visibility: N/A

Pressure: 29.83 "Hg

Humidity: 63%

Dew Point: 75 °F

Location of PanamaLocation

Past Weather in Panama — Graph

°F

Panama Temperature Yesterday

Maximum temperature yesterday: 90 °F (at 12:00 PM)
Minimum temperature yesterday: 77 °F (at 2:00 PM)
Average temperature yesterday: 81 °F

High & Low Weather Summary for the Past Weeks

 TemperatureHumidityPressure
High91 °F (May 14, 12:00 PM)100% (May 21, 7:00 AM)29.95 "Hg (May 21, 7:00 AM)
Low77 °F (May 12, 6:00 AM)46% (May 12, 12:00 PM)29.74 "Hg (May 13, 4:00 PM)
Average84 °F82%29.84 "Hg
* Reported May 11 12:00 PM — May 26 12:00 PM, Panama, Weather by CustomWeather, © 2016

Note: Actual official high and low records may vary slightly from our data, if they occured in-between our weather recording intervals... More about our weather records

Advertising

Panama Weather History for the Previous 24 Hours

Scroll right to see more
 ConditionsComfort  
Time TempWeatherWind HumidityBarometerVisibility
12:00 PM
Thu, May 26
88 °FScattered clouds.3 mph70%29.86 "Hg6 mi
11:00 AM88 °FScattered clouds.3 mph70%29.86 "Hg6 mi
10:00 AM86 °FScattered clouds.3 mph79%29.89 "Hg6 mi
9:00 AM82 °FPassing clouds.No wind84%29.89 "Hg6 mi
8:00 AM81 °FPassing clouds.5 mph89%29.89 "Hg6 mi
7:00 AM79 °FPassing clouds.5 mph94%29.86 "Hg6 mi
6:00 AM77 °FClear.No wind94%29.86 "Hg5 mi
10:00 PM
Wed, May 25
79 °FPassing clouds.2 mph94%29.89 "HgN/A
9:00 PM79 °FPassing clouds.2 mph94%29.89 "HgN/A
8:00 PM79 °FPassing clouds.6 mph94%29.89 "HgN/A
7:00 PM79 °FPassing clouds.5 mph94%29.86 "HgN/A
6:00 PM79 °FPartly sunny.2 mph94%29.89 "HgN/A
5:00 PM79 °FLight rain. Broken clouds.2 mph94%29.86 "Hg6 mi
4:00 PM79 °FLight rain. Broken clouds.5 mph94%29.89 "Hg4 mi
3:00 PM77 °FLight rain. Partly sunny.2 mph94%29.89 "Hg6 mi
2:00 PM77 °FThunderstorms. Broken clouds.10 mph94%29.89 "Hg1 mi
1:00 PM82 °FThunderstorms. Broken clouds.6 mph89%29.89 "Hg5 mi
Weather by CustomWeather, © 2016

See weather overviewHow to use our weather pages